QPF
0.19 0.19 0.28 0.34 0.29 0.33 0.47 0.55 0.56 0.59 0.59 0.51 0.38 0.26 0.18 0.13 0.08 0.07 0.05 0.02 0.02 0.01 0.01 0.01 0.02 0.02 0.02 0.02 0.02 0.02 0.02 0.03 0.03 0.02 0.01 0.00 0.00 0.00 0.00 0.00 0.00 0.00 0.00
0.18 0.19 0.28 0.34 0.37 0.36 0.47 0.57 0.59 0.60 0.54 0.46 0.39 0.29 0.21 0.15 0.11 0.08 0.07 0.03 0.02 0.02 0.02 0.02 0.02 0.03 0.03 0.03 0.05 0.05 0.05 0.04 0.04 0.03 0.02 0.01 0.01 0.00 0.01 0.01 0.01 0.00 0.00
0.18 0.19 0.25 0.28 0.37 0.42 0.50 0.53 0.57 0.58 0.54 0.44 0.39 0.32 0.25 0.20 0.15 0.11 0.09 0.06 0.04 0.03 0.03 0.03 0.04 0.05 0.05 0.06 0.09 0.10 0.10 0.07 0.07 0.06 0.04 0.02 0.01 0.01 0.01 0.00 0.00 0.00 0.00
0.16 0.17 0.22 0.27 0.30 0.37 0.47 0.50 0.54 0.59 0.56 0.43 0.36 0.34 0.30 0.22 0.18 0.14 0.11 0.09 0.06 0.04 0.04 0.04 0.06 0.07 0.08 0.09 0.11 0.13 0.12 0.12 0.10 0.08 0.06 0.03 0.03 0.02 0.01 0.01 0.00 0.00 0.00
0.13 0.14 0.17 0.22 0.26 0.33 0.42 0.49 0.52 0.55 0.52 0.44 0.37 0.36 0.32 0.25 0.20 0.18 0.15 0.12 0.10 0.08 0.06 0.06 0.08 0.08 0.09 0.10 0.11 0.12 0.12 0.12 0.11 0.09 0.07 0.05 0.04 0.02 0.01 0.01 0.00 0.00 0.00
0.13 0.15 0.16 0.18 0.21 0.24 0.33 0.42 0.43 0.46 0.48 0.40 0.36 0.35 0.30 0.25 0.22 0.19 0.17 0.16 0.13 0.11 0.10 0.09 0.10 0.10 0.09 0.09 0.11 0.12 0.13 0.13 0.11 0.10 0.08 0.06 0.05 0.04 0.04 0.03 0.02 0.01 0.01
0.15 0.16 0.14 0.15 0.18 0.20 0.24 0.31 0.35 0.38 0.45 0.43 0.37 0.33 0.32 0.27 0.24 0.22 0.21 0.19 0.16 0.13 0.12 0.12 0.11 0.11 0.10 0.11 0.11 0.12 0.12 0.10 0.09 0.08 0.08 0.07 0.06 0.05 0.05 0.04 0.02 0.01 0.01
0.13 0.13 0.14 0.18 0.20 0.21 0.19 0.22 0.28 0.30 0.36 0.41 0.37 0.33 0.35 0.33 0.26 0.24 0.24 0.21 0.17 0.15 0.15 0.14 0.13 0.13 0.13 0.13 0.12 0.11 0.10 0.09 0.08 0.07 0.06 0.05 0.04 0.04 0.04 0.03 0.03 0.02 0.01
0.12 0.13 0.13 0.14 0.14 0.12 0.10 0.12 0.18 0.22 0.25 0.30 0.31 0.29 0.31 0.33 0.29 0.24 0.21 0.20 0.18 0.17 0.16 0.16 0.16 0.15 0.15 0.14 0.13 0.10 0.08 0.07 0.05 0.04 0.04 0.04 0.04 0.03 0.03 0.02 0.02 0.01 0.01
0.07 0.10 0.10 0.08 0.06 0.04 0.04 0.06 0.09 0.15 0.18 0.20 0.23 0.23 0.23 0.25 0.22 0.21 0.19 0.15 0.14 0.13 0.14 0.15 0.16 0.14 0.14 0.13 0.12 0.09 0.07 0.06 0.04 0.04 0.03 0.03 0.02 0.02 0.02 0.02 0.02 0.01 0.01
0.04 0.05 0.06 0.05 0.02 0.01 0.02 0.03 0.04 0.07 0.09 0.13 0.17 0.17 0.16 0.19 0.19 0.16 0.14 0.13 0.10 0.10 0.10 0.12 0.13 0.13 0.12 0.11 0.11 0.10 0.08 0.06 0.05 0.04 0.03 0.02 0.02 0.02 0.02 0.02 0.01 0.01 0.01
0.04 0.03 0.03 0.02 0.01 0.01 0.01 0.02 0.03 0.03 0.03 0.05 0.09 0.08 0.08 0.11 0.14 0.13 0.11 0.10 0.10 0.08 0.07 0.07 0.08 0.09 0.10 0.09 0.09 0.09 0.09 0.07 0.06 0.04 0.03 0.02 0.02 0.01 0.01 0.01 0.01 0.01 0.01
0.02 0.02 0.02 0.02 0.02 0.02 0.01 0.01 0.02 0.02 0.03 0.03 0.03 0.02 0.03 0.04 0.05 0.07 0.07 0.07 0.08 0.08 0.06 0.05 0.05 0.05 0.04 0.04 0.04 0.04 0.04 0.03 0.03 0.03 0.02 0.02 0.01 0.01 0.01 0.01 0.01 0.00 0.00
0.00 0.00 0.00 0.01 0.01 0.01 0.01 0.00 0.01 0.01 0.02 0.02 0.02 0.02 0.02 0.02 0.03 0.03 0.03 0.03 0.04 0.04 0.04 0.04 0.03 0.02 0.02 0.02 0.01 0.01 0.01 0.01 0.01 0.01 0.01 0.01 0.01 0.01 0.01 0.01 0.01 0.00 0.00
0.00 0.00 0.00 0.00 0.00 0.00 0.00 0.00 0.00 0.00 0.00 0.00 0.01 0.01 0.01 0.01 0.02 0.02 0.01 0.01 0.01 0.02 0.02 0.01 0.01 0.01 0.01 0.01 0.01 0.01 0.01 0.00 0.00 0.00 0.00 0.00 0.01 0.00 0.00 0.00 0.00 0.00 0.00
0.00 0.00 0.00 0.00 0.00 0.00 0.00 0.00 0.00 0.00 0.00 0.00 0.00 0.00 0.00 0.00 0.01 0.02 0.01 0.01 0.01 0.01 0.01 0.01 0.01 0.01 0.00 0.00 0.00 0.00 0.00 0.00 0.00 0.01 0.01 0.01 0.01 0.01 0.00 0.00 0.00 0.00 0.00
0.00 0.00 0.00 0.00 0.00 0.00 0.00 0.00 0.00 0.00 0.00 0.00 0.00 0.00 0.00 0.01 0.01 0.01 0.02 0.02 0.01 0.01 0.01 0.01 0.01 0.00 0.00 0.01 0.01 0.01 0.00 0.00 0.01 0.01 0.01 0.01 0.01 0.01 0.01 0.01 0.01 0.00 0.00
0.00 0.00 0.00 0.00 0.00 0.00 0.00 0.00 0.00 0.00 0.00 0.00 0.00 0.00 0.00 0.00 0.01 0.01 0.01 0.02 0.02 0.02 0.02 0.01 0.01 0.01 0.01 0.01 0.01 0.01 0.01 0.01 0.01 0.01 0.01 0.01 0.01 0.01 0.01 0.01 0.01 0.00 0.00
0.00 0.00 0.00 0.00 0.00 0.00 0.00 0.00 0.00 0.00 0.00 0.00 0.00 0.00 0.00 0.00 0.00 0.00 0.00 0.00 0.01 0.01 0.01 0.01 0.01 0.01 0.01 0.01 0.02 0.02 0.01 0.01 0.01 0.01 0.01 0.01 0.00 0.01 0.01 0.00 0.00 0.00 0.00
0.00 0.00 0.00 0.00 0.00 0.00 0.00 0.00 0.00 0.00 0.00 0.00 0.00 0.00 0.00 0.00 0.00 0.00 0.00 0.00 0.00 0.00 0.00 0.00 0.00 0.01 0.01 0.02 0.02 0.02 0.02 0.02 0.01 0.01 0.01 0.01 0.01 0.01 0.01 0.01 0.00 0.00 0.00
0.00 0.00 0.00 0.00 0.00 0.00 0.00 0.00 0.00 0.00 0.00 0.00 0.00 0.00 0.00 0.00 0.00 0.00 0.00 0.00 0.01 0.01 0.01 0.01 0.01 0.01 0.01 0.02 0.02 0.03 0.02 0.02 0.02 0.02 0.02 0.02 0.02 0.02 0.02 0.01 0.01 0.00 0.00
0.00 0.00 0.00 0.00 0.00 0.00 0.00 0.00 0.00 0.00 0.00 0.00 0.00 0.00 0.00 0.00 0.00 0.00 0.00 0.00 0.01 0.01 0.01 0.02 0.02 0.01 0.01 0.02 0.03 0.03 0.04 0.03 0.03 0.02 0.02 0.02 0.03 0.03 0.02 0.01 0.01 0.01 0.00
0.00 0.00 0.00 0.00 0.00 0.00 0.00 0.01 0.01 0.01 0.01 0.01 0.01 0.00 0.00 0.00 0.00 0.00 0.00 0.01 0.01 0.02 0.02 0.03 0.03 0.03 0.03 0.03 0.05 0.05 0.06 0.06 0.05 0.03 0.03 0.03 0.03 0.03 0.02 0.01 0.01 0.01 0.00
0.00 0.00 0.00 0.00 0.00 0.00 0.00 0.00 0.01 0.01 0.01 0.01 0.01 0.01 0.01 0.01 0.02 0.02 0.01 0.01 0.01 0.02 0.02 0.03 0.03 0.04 0.04 0.05 0.06 0.07 0.08 0.08 0.07 0.06 0.05 0.05 0.05 0.04 0.03 0.02 0.01 0.01 0.00
0.00 0.00 0.00 0.00 0.00 0.00 0.00 0.01 0.01 0.01 0.01 0.01 0.02 0.02 0.02 0.02 0.03 0.03 0.04 0.04 0.03 0.03 0.03 0.04 0.04 0.05 0.05 0.05 0.07 0.08 0.09 0.09 0.09 0.09 0.07 0.06 0.05 0.04 0.03 0.02 0.02 0.01 0.01
0.00 0.00 0.00 0.00 0.00 0.00 0.00 0.01 0.01 0.02 0.02 0.02 0.02 0.02 0.02 0.03 0.03 0.03 0.03 0.04 0.04 0.05 0.05 0.05 0.06 0.06 0.06 0.07 0.09 0.10 0.10 0.11 0.12 0.13 0.09 0.06 0.04 0.03 0.02 0.02 0.02 0.01 0.01
MSLP
1005.91 1006.07 1006.23 1006.36 1006.46 1006.53 1006.59 1006.68 1006.84 1007.08 1007.44 1007.90 1008.46 1009.08 1009.72 1010.34 1010.91 1011.42 1011.86 1012.26 1012.64 1013.02 1013.45 1013.92 1014.44 1015.00 1015.56 1016.11 1016.62 1017.06 1017.43 1017.72 1017.95 1018.12 1018.25 1018.34 1018.40 1018.44 1018.45 1018.45 1018.43 1018.42 1018.40
1005.56 1005.71 1005.86 1005.97 1006.05 1006.11 1006.18 1006.28 1006.45 1006.73 1007.12 1007.63 1008.24 1008.90 1009.59 1010.26 1010.87 1011.41 1011.89 1012.30 1012.68 1013.06 1013.46 1013.91 1014.39 1014.90 1015.44 1015.96 1016.46 1016.91 1017.31 1017.65 1017.93 1018.15 1018.33 1018.45 1018.53 1018.58 1018.58 1018.56 1018.53 1018.51 1018.50
1005.30 1005.43 1005.54 1005.63 1005.69 1005.75 1005.82 1005.94 1006.15 1006.46 1006.89 1007.45 1008.10 1008.81 1009.54 1010.26 1010.91 1011.49 1011.99 1012.43 1012.82 1013.18 1013.56 1013.95 1014.37 1014.82 1015.29 1015.76 1016.22 1016.66 1017.06 1017.42 1017.74 1018.02 1018.24 1018.41 1018.53 1018.59 1018.62 1018.61 1018.60 1018.59 1018.60
1005.21 1005.27 1005.33 1005.39 1005.43 1005.49 1005.58 1005.73 1005.97 1006.32 1006.79 1007.38 1008.06 1008.80 1009.56 1010.31 1010.99 1011.60 1012.13 1012.58 1012.97 1013.32 1013.65 1013.99 1014.34 1014.70 1015.09 1015.48 1015.88 1016.29 1016.67 1017.05 1017.39 1017.71 1017.98 1018.20 1018.37 1018.48 1018.55 1018.58 1018.60 1018.63 1018.68
1005.30 1005.29 1005.30 1005.31 1005.34 1005.40 1005.51 1005.68 1005.96 1006.34 1006.83 1007.43 1008.12 1008.87 1009.63 1010.38 1011.07 1011.69 1012.23 1012.69 1013.07 1013.40 1013.69 1013.97 1014.24 1014.52 1014.82 1015.13 1015.47 1015.82 1016.19 1016.56 1016.92 1017.27 1017.58 1017.86 1018.08 1018.25 1018.38 1018.47 1018.55 1018.64 1018.74
1005.61 1005.52 1005.46 1005.43 1005.44 1005.51 1005.64 1005.84 1006.14 1006.53 1007.03 1007.62 1008.28 1008.99 1009.72 1010.44 1011.12 1011.73 1012.26 1012.70 1013.07 1013.37 1013.63 1013.85 1014.05 1014.26 1014.48 1014.72 1015.00 1015.30 1015.64 1016.00 1016.38 1016.75 1017.11 1017.44 1017.72 1017.96 1018.15 1018.31 1018.46 1018.61 1018.77
1006.10 1005.94 1005.83 1005.77 1005.78 1005.85 1005.99 1006.22 1006.52 1006.91 1007.38 1007.93 1008.53 1009.18 1009.84 1010.50 1011.12 1011.68 1012.18 1012.60 1012.94 1013.22 1013.44 1013.62 1013.78 1013.93 1014.09 1014.28 1014.51 1014.78 1015.10 1015.45 1015.83 1016.23 1016.62 1016.99 1017.33 1017.63 1017.89 1018.12 1018.34 1018.55 1018.77
1006.76 1006.55 1006.40 1006.33 1006.33 1006.42 1006.58 1006.81 1007.11 1007.47 1007.90 1008.37 1008.88 1009.43 1009.99 1010.55 1011.08 1011.58 1012.02 1012.40 1012.71 1012.96 1013.16 1013.31 1013.44 1013.56 1013.69 1013.85 1014.06 1014.31 1014.61 1014.95 1015.34 1015.74 1016.16 1016.56 1016.95 1017.30 1017.63 1017.93 1018.21 1018.49 1018.76
1007.53 1007.30 1007.15 1007.08 1007.10 1007.20 1007.37 1007.60 1007.89 1008.20 1008.56 1008.94 1009.34 1009.76 1010.19 1010.63 1011.05 1011.46 1011.82 1012.14 1012.42 1012.64 1012.82 1012.96 1013.08 1013.19 1013.32 1013.48 1013.67 1013.91 1014.20 1014.55 1014.93 1015.34 1015.77 1016.19 1016.61 1017.01 1017.39 1017.75 1018.09 1018.42 1018.75
1008.36 1008.15 1008.02 1007.98 1008.03 1008.15 1008.33 1008.56 1008.81 1009.07 1009.34 1009.61 1009.89 1010.17 1010.46 1010.77 1011.07 1011.36 1011.65 1011.90 1012.13 1012.33 1012.49 1012.63 1012.76 1012.88 1013.02 1013.18 1013.38 1013.62 1013.92 1014.25 1014.63 1015.03 1015.46 1015.90 1016.34 1016.77 1017.19 1017.60 1017.99 1018.37 1018.73
1009.21 1009.06 1008.98 1008.98 1009.06 1009.21 1009.40 1009.62 1009.83 1010.02 1010.20 1010.36 1010.51 1010.66 1010.81 1010.98 1011.16 1011.35 1011.55 1011.74 1011.93 1012.09 1012.25 1012.39 1012.53 1012.67 1012.82 1013.00 1013.21 1013.46 1013.75 1014.07 1014.44 1014.83 1015.24 1015.68 1016.12 1016.57 1017.03 1017.47 1017.90 1018.32 1018.71
1010.05 1009.97 1009.96 1010.02 1010.14 1010.31 1010.51 1010.70 1010.86 1010.99 1011.08 1011.14 1011.17 1011.20 1011.23 1011.28 1011.35 1011.45 1011.57 1011.70 1011.84 1011.98 1012.13 1012.27 1012.42 1012.58 1012.75 1012.94 1013.16 1013.41 1013.69 1014.00 1014.34 1014.71 1015.10 1015.52 1015.96 1016.42 1016.89 1017.36 1017.83 1018.27 1018.69
1010.86 1010.86 1010.92 1011.03 1011.19 1011.38 1011.56 1011.73 1011.85 1011.91 1011.93 1011.89 1011.83 1011.76 1011.69 1011.65 1011.63 1011.66 1011.71 1011.79 1011.89 1012.01 1012.14 1012.28 1012.44 1012.61 1012.79 1012.99 1013.21 1013.45 1013.72 1014.00 1014.31 1014.65 1015.02 1015.42 1015.85 1016.30 1016.78 1017.27 1017.75 1018.21 1018.64
1011.61 1011.69 1011.81 1011.97 1012.15 1012.34 1012.51 1012.64 1012.71 1012.72 1012.67 1012.57 1012.43 1012.29 1012.16 1012.05 1011.98 1011.95 1011.96 1012.00 1012.07 1012.17 1012.28 1012.42 1012.57 1012.73 1012.92 1013.11 1013.33 1013.55 1013.79 1014.05 1014.33 1014.63 1014.97 1015.35 1015.76 1016.21 1016.69 1017.18 1017.66 1018.13 1018.56
1012.29 1012.44 1012.60 1012.79 1012.98 1013.16 1013.30 1013.39 1013.42 1013.38 1013.28 1013.13 1012.95 1012.77 1012.60 1012.45 1012.35 1012.28 1012.26 1012.28 1012.32 1012.40 1012.49 1012.61 1012.75 1012.91 1013.08 1013.26 1013.46 1013.66 1013.88 1014.10 1014.35 1014.62 1014.93 1015.28 1015.68 1016.12 1016.59 1017.08 1017.57 1018.03 1018.45
1012.91 1013.10 1013.29 1013.48 1013.66 1013.82 1013.93 1013.98 1013.97 1013.89 1013.75 1013.58 1013.38 1013.18 1012.99 1012.83 1012.71 1012.63 1012.58 1012.57 1012.60 1012.64 1012.72 1012.81 1012.93 1013.06 1013.21 1013.38 1013.55 1013.73 1013.92 1014.12 1014.34 1014.59 1014.87 1015.21 1015.59 1016.02 1016.49 1016.97 1017.45 1017.90 1018.30
1013.47 1013.68 1013.88 1014.06 1014.21 1014.33 1014.41 1014.42 1014.37 1014.27 1014.11 1013.93 1013.72 1013.52 1013.33 1013.17 1013.04 1012.94 1012.88 1012.85 1012.84 1012.86 1012.89 1012.96 1013.04 1013.14 1013.26 1013.40 1013.54 1013.70 1013.87 1014.05 1014.25 1014.49 1014.76 1015.09 1015.47 1015.89 1016.35 1016.83 1017.30 1017.73 1018.12
1014.00 1014.20 1014.39 1014.54 1014.67 1014.75 1014.79 1014.77 1014.69 1014.57 1014.41 1014.22 1014.02 1013.82 1013.63 1013.47 1013.33 1013.22 1013.12 1013.06 1013.01 1012.98 1012.97 1012.99 1013.03 1013.09 1013.17 1013.28 1013.40 1013.53 1013.68 1013.85 1014.05 1014.28 1014.56 1014.89 1015.27 1015.70 1016.17 1016.64 1017.11 1017.53 1017.90
1014.50 1014.69 1014.85 1014.98 1015.07 1015.12 1015.12 1015.08 1014.98 1014.85 1014.68 1014.50 1014.30 1014.10 1013.91 1013.74 1013.58 1013.43 1013.30 1013.18 1013.08 1012.99 1012.92 1012.88 1012.87 1012.88 1012.92 1012.99 1013.08 1013.20 1013.33 1013.50 1013.70 1013.94 1014.23 1014.57 1014.97 1015.42 1015.90 1016.39 1016.86 1017.28 1017.65
1015.00 1015.17 1015.31 1015.41 1015.47 1015.48 1015.46 1015.39 1015.29 1015.15 1014.98 1014.79 1014.59 1014.39 1014.19 1013.99 1013.79 1013.60 1013.41 1013.23 1013.06 1012.90 1012.76 1012.65 1012.57 1012.52 1012.52 1012.54 1012.60 1012.69 1012.82 1012.98 1013.19 1013.45 1013.76 1014.13 1014.55 1015.03 1015.53 1016.04 1016.53 1016.98 1017.36
1015.50 1015.66 1015.77 1015.84 1015.87 1015.86 1015.82 1015.73 1015.62 1015.47 1015.30 1015.10 1014.90 1014.68 1014.45 1014.21 1013.97 1013.72 1013.47 1013.21 1012.96 1012.72 1012.51 1012.32 1012.17 1012.06 1011.99 1011.97 1011.99 1012.05 1012.16 1012.32 1012.54 1012.81 1013.14 1013.54 1014.00 1014.51 1015.05 1015.59 1016.12 1016.60 1017.01
1016.00 1016.13 1016.22 1016.26 1016.27 1016.24 1016.18 1016.08 1015.95 1015.79 1015.61 1015.40 1015.18 1014.94 1014.68 1014.40 1014.11 1013.80 1013.48 1013.15 1012.82 1012.50 1012.21 1011.94 1011.72 1011.53 1011.40 1011.33 1011.30 1011.33 1011.41 1011.56 1011.77 1012.05 1012.40 1012.83 1013.32 1013.87 1014.45 1015.04 1015.61 1016.13 1016.60
1016.48 1016.58 1016.64 1016.66 1016.64 1016.59 1016.50 1016.38 1016.23 1016.06 1015.86 1015.63 1015.39 1015.12 1014.83 1014.52 1014.18 1013.82 1013.45 1013.06 1012.66 1012.28 1011.91 1011.57 1011.28 1011.03 1010.83 1010.68 1010.60 1010.58 1010.63 1010.74 1010.94 1011.22 1011.58 1012.02 1012.54 1013.12 1013.74 1014.38 1015.00 1015.59 1016.11
1016.89 1016.97 1017.00 1016.99 1016.94 1016.85 1016.73 1016.58 1016.41 1016.21 1015.99 1015.75 1015.48 1015.19 1014.88 1014.54 1014.18 1013.79 1013.38 1012.95 1012.52 1012.09 1011.67 1011.27 1010.91 1010.59 1010.32 1010.11 1009.96 1009.88 1009.87 1009.94 1010.10 1010.36 1010.71 1011.16 1011.70 1012.31 1012.96 1013.64 1014.32 1014.96 1015.54
1017.23 1017.27 1017.26 1017.21 1017.11 1016.99 1016.83 1016.64 1016.43 1016.20 1015.96 1015.69 1015.42 1015.12 1014.80 1014.46 1014.09 1013.70 1013.28 1012.85 1012.40 1011.94 1011.50 1011.06 1010.65 1010.27 1009.94 1009.65 1009.43 1009.27 1009.19 1009.21 1009.32 1009.54 1009.86 1010.30 1010.84 1011.46 1012.14 1012.85 1013.57 1014.26 1014.90
1017.45 1017.45 1017.40 1017.30 1017.16 1016.98 1016.78 1016.54 1016.29 1016.03 1015.76 1015.48 1015.19 1014.89 1014.58 1014.26 1013.91 1013.55 1013.15 1012.74 1012.31 1011.86 1011.40 1010.95 1010.51 1010.08 1009.69 1009.33 1009.03 1008.79 1008.64 1008.58 1008.62 1008.78 1009.07 1009.47 1009.99 1010.61 1011.30 1012.03 1012.78 1013.51 1014.20
Thickness
5574 5581 5588 5596 5603 5609 5616 5623 5631 5637 5641 5645 5647 5651 5652 5655 5658 5660 5661 5663 5664 5664 5665 5665 5665 5665 5663 5662 5662 5661 5659 5658 5659 5656 5654 5657 5660 5660 5659 5658 5657 5655 5653
5571 5579 5585 5592 5598 5603 5611 5619 5625 5633 5637 5641 5645 5647 5649 5651 5654 5654 5655 5657 5658 5658 5659 5659 5659 5659 5658 5656 5656 5655 5652 5652 5652 5649 5645 5643 5646 5650 5652 5651 5649 5647 5646
5572 5578 5583 5590 5596 5600 5607 5615 5621 5627 5633 5637 5639 5640 5642 5643 5643 5644 5647 5649 5651 5652 5653 5653 5653 5653 5652 5651 5651 5650 5648 5645 5645 5645 5641 5636 5635 5639 5641 5642 5641 5640 5638
5574 5579 5584 5588 5592 5597 5604 5611 5617 5623 5629 5632 5634 5635 5637 5637 5639 5641 5642 5643 5645 5646 5647 5647 5647 5647 5646 5645 5645 5645 5643 5641 5637 5637 5637 5636 5635 5631 5629 5631 5633 5632 5630
5574 5578 5583 5587 5590 5595 5601 5608 5614 5619 5624 5628 5630 5631 5633 5634 5635 5636 5637 5637 5639 5640 5641 5641 5641 5641 5640 5640 5639 5639 5638 5636 5633 5631 5630 5629 5628 5627 5623 5621 5621 5622 5622
5575 5578 5583 5587 5589 5594 5599 5605 5610 5614 5619 5622 5624 5626 5628 5629 5630 5631 5631 5631 5631 5633 5634 5634 5635 5635 5634 5634 5634 5634 5633 5631 5629 5626 5624 5623 5620 5619 5617 5614 5614 5613 5612
5575 5578 5581 5585 5587 5591 5597 5602 5606 5609 5613 5617 5620 5622 5623 5625 5626 5627 5626 5625 5626 5627 5628 5629 5629 5628 5628 5627 5628 5628 5626 5625 5623 5620 5619 5617 5616 5614 5611 5609 5606 5605 5603
5571 5575 5578 5581 5585 5589 5595 5598 5602 5605 5610 5614 5616 5617 5618 5620 5621 5621 5622 5622 5623 5624 5624 5623 5622 5622 5622 5622 5622 5621 5619 5618 5616 5614 5612 5610 5608 5607 5605 5602 5598 5595 5593
5565 5570 5575 5579 5582 5586 5590 5594 5597 5601 5605 5609 5610 5611 5614 5615 5615 5616 5617 5618 5617 5617 5616 5615 5615 5615 5616 5616 5615 5613 5612 5610 5608 5606 5603 5601 5600 5598 5596 5594 5592 5587 5583
5561 5565 5569 5573 5576 5580 5583 5587 5592 5595 5599 5601 5604 5606 5607 5609 5610 5611 5611 5611 5611 5610 5609 5609 5608 5608 5608 5607 5605 5604 5603 5601 5599 5597 5594 5592 5590 5589 5586 5584 5581 5579 5576
5556 5560 5563 5566 5570 5574 5577 5581 5584 5587 5590 5593 5597 5599 5600 5601 5603 5603 5603 5603 5603 5602 5601 5601 5600 5599 5599 5598 5596 5595 5593 5592 5590 5587 5585 5582 5581 5578 5575 5573 5570 5567 5565
5552 5555 5557 5560 5564 5567 5570 5573 5576 5578 5581 5584 5587 5590 5591 5592 5593 5593 5593 5593 5593 5593 5592 5592 5591 5590 5590 5589 5587 5586 5583 5581 5579 5577 5575 5573 5570 5568 5565 5562 5559 5556 5554
5547 5549 5552 5554 5556 5559 5562 5565 5566 5568 5571 5575 5577 5578 5580 5581 5582 5582 5583 5583 5583 5582 5582 5581 5580 5579 5578 5576 5576 5574 5572 5570 5568 5566 5565 5562 5559 5556 5553 5551 5548 5545 5542
5542 5543 5544 5546 5548 5551 5553 5555 5557 5559 5562 5565 5567 5567 5568 5569 5570 5571 5571 5571 5571 5571 5570 5569 5568 5567 5566 5565 5563 5562 5560 5558 5557 5555 5553 5550 5548 5545 5542 5539 5536 5533 5530
5536 5537 5537 5538 5540 5541 5543 5545 5547 5549 5552 5554 5555 5555 5556 5557 5557 5558 5558 5558 5558 5558 5557 5555 5554 5554 5553 5551 5550 5548 5547 5545 5543 5541 5540 5537 5535 5533 5531 5528 5525 5522 5519
5528 5529 5530 5530 5530 5532 5534 5535 5537 5539 5541 5542 5542 5543 5544 5544 5544 5544 5544 5544 5544 5543 5542 5541 5540 5538 5538 5537 5536 5534 5532 5531 5529 5527 5525 5523 5521 5519 5518 5516 5515 5512 5509
5521 5521 5520 5520 5521 5522 5524 5525 5527 5528 5529 5529 5529 5530 5530 5529 5529 5530 5529 5528 5528 5527 5526 5525 5524 5523 5523 5522 5520 5519 5517 5516 5514 5512 5510 5509 5508 5506 5503 5502 5501 5499 5497
5515 5513 5512 5513 5513 5514 5514 5515 5516 5516 5517 5517 5516 5516 5515 5514 5514 5513 5512 5511 5510 5509 5508 5508 5507 5506 5506 5506 5505 5503 5501 5500 5500 5499 5498 5496 5495 5493 5491 5489 5487 5485 5484
5508 5506 5506 5505 5505 5504 5504 5503 5503 5503 5503 5502 5501 5501 5500 5498 5497 5496 5495 5493 5491 5490 5490 5490 5489 5488 5488 5488 5488 5487 5485 5484 5484 5485 5484 5483 5482 5481 5479 5476 5474 5472 5471
5502 5501 5499 5498 5497 5496 5495 5494 5492 5491 5489 5488 5487 5486 5485 5483 5481 5478 5476 5474 5473 5472 5471 5470 5470 5470 5471 5472 5471 5471 5470 5470 5470 5470 5471 5472 5471 5470 5469 5465 5463 5461 5459
5496 5494 5492 5489 5487 5486 5485 5482 5480 5477 5476 5474 5473 5471 5469 5467 5464 5462 5459 5456 5454 5453 5452 5452 5452 5453 5454 5455 5456 5456 5456 5456 5456 5457 5458 5458 5459 5459 5458 5456 5454 5452 5450
5490 5487 5483 5481 5479 5477 5475 5471 5467 5465 5463 5461 5458 5456 5454 5451 5448 5444 5441 5438 5435 5434 5433 5433 5434 5435 5437 5439 5441 5442 5443 5443 5443 5444 5446 5446 5447 5447 5446 5445 5444 5443 5441
5481 5478 5475 5471 5468 5465 5462 5458 5454 5450 5447 5444 5440 5438 5435 5432 5429 5425 5422 5419 5417 5415 5416 5416 5417 5419 5420 5422 5425 5427 5428 5429 5430 5432 5434 5434 5435 5435 5434 5434 5433 5432 5429
5472 5468 5464 5459 5455 5451 5447 5442 5438 5433 5429 5425 5422 5419 5416 5413 5409 5406 5403 5401 5399 5398 5398 5399 5400 5401 5403 5404 5407 5410 5413 5415 5417 5418 5420 5422 5422 5422 5423 5422 5422 5421 5419
5462 5458 5452 5447 5443 5438 5433 5428 5422 5416 5410 5406 5403 5399 5396 5393 5390 5388 5385 5383 5381 5379 5380 5381 5382 5383 5387 5390 5392 5394 5397 5401 5404 5404 5405 5407 5409 5409 5409 5409 5410 5410 5408
5452 5447 5441 5436 5430 5425 5419 5413 5406 5399 5393 5388 5384 5380 5376 5373 5370 5368 5368 5366 5364 5364 5364 5365 5366 5369 5372 5375 5378 5381 5385 5388 5390 5392 5395 5398 5399 5401 5401 5401 5401 5401 5400